Time,TemperatureF,DewpointF,PressureIn,WindDirection,WindDirectionDegrees,WindSpeedMPH,WindSpeedGustMPH,Humidity,HourlyPrecipIn,Conditions,Clouds,dailyrainin,SoftwareType,DateUTC
2013-03-15 00:04:00,33.8,21.4,23.60,SSW,205,0.0,0.0,25,-99.99,,,-99.99,meteohub,2013-03-15 06:04:00,
2013-03-15 00:09:00,33.8,21.4,23.60,SW,235,0.0,0.0,25,-99.99,,,-99.99,meteohub,2013-03-15 06:09:00,
2013-03-15 00:14:00,33.8,21.2,23.60,SW,235,0.0,0.0,25,-99.99,,,-99.99,meteohub,2013-03-15 06:14:00,
2013-03-15 00:20:00,33.6,21.2,23.60,SW,235,0.0,0.0,25,-99.99,,,-99.99,meteohub,2013-03-15 06:20:00,
2013-03-15 00:25:00,33.3,21.2,23.60,SW,235,0.0,0.0,25,-99.99,,,-99.99,meteohub,2013-03-15 06:25:00,
2013-03-15 00:30:00,32.7,21.6,23.49,SW,235,0.0,0.0,25,-99.99,,,-99.99,meteohub,2013-03-15 06:30:00,
2013-03-15 00:35:00,32.5,20.8,23.49,SW,235,0.0,0.0,24,-99.99,,,-99.99,meteohub,2013-03-15 06:35:00,
2013-03-15 00:41:00,32.5,20.7,23.49,SW,235,0.0,0.0,24,-99.99,,,-99.99,meteohub,2013-03-15 06:41:00,
2013-03-15 00:46:00,32.7,21.6,23.55,SW,235,0.0,0.0,25,-99.99,,,-99.99,meteohub,2013-03-15 06:46:00,
2013-03-15 00:52:00,33.1,21.4,23.55,SW,235,0.0,0.0,25,-99.99,,,-99.99,meteohub,2013-03-15 06:52:00,
2013-03-15 00:57:00,33.1,21.4,23.55,SW,235,0.0,0.0,25,-99.99,,,-99.99,meteohub,2013-03-15 06:57:00,
2013-03-15 01:02:00,33.3,21.2,23.57,SW,235,0.0,0.0,25,-99.99,,,-99.99,meteohub,2013-03-15 07:02:00,
2013-03-15 01:07:00,33.3,21.2,23.57,SW,235,0.0,0.0,25,-99.99,,,-99.99,meteohub,2013-03-15 07:07:00,
2013-03-15 01:12:00,33.1,21.2,23.57,SW,235,3.0,0.0,25,-99.99,,,-99.99,meteohub,2013-03-15 07:12:00,
2013-03-15 01:17:00,32.7,21.4,23.49,SW,235,0.0,4.0,25,-99.99,,,-99.99,meteohub,2013-03-15 07:17:00,
2013-03-15 01:22:00,32.7,20.8,23.49,SW,235,0.0,4.0,24,-99.99,,,-99.99,meteohub,2013-03-15 07:22:00,
2013-03-15 01:27:00,32.7,20.7,23.49,SW,235,0.0,4.0,24,-99.99,,,-99.99,meteohub,2013-03-15 07:27:00,
2013-03-15 01:33:00,32.5,21.6,23.57,SW,235,0.0,0.0,25,-99.99,,,-99.99,meteohub,2013-03-15 07:33:00,
2013-03-15 01:38:00,32.5,21.4,23.57,SW,235,0.0,0.0,25,-99.99,,,-99.99,meteohub,2013-03-15 07:38:00,
2013-03-15 01:43:00,32.2,21.4,23.57,SW,235,0.0,0.0,25,-99.99,,,-99.99,meteohub,2013-03-15 07:43:00,
2013-03-15 01:48:00,32.4,21.2,23.55,SW,235,0.0,0.0,25,-99.99,,,-99.99,meteohub,2013-03-15 07:48:00,
2013-03-15 01:54:00,32.4,21.2,23.55,SW,235,0.0,0.0,25,-99.99,,,-99.99,meteohub,2013-03-15 07:54:00,
2013-03-15 01:59:00,32.5,21.0,23.55,SW,235,0.0,0.0,25,-99.99,,,-99.99,meteohub,2013-03-15 07:59:00,
2013-03-15 02:04:00,32.4,21.4,23.57,SW,235,0.0,0.0,25,-99.99,,,-99.99,meteohub,2013-03-15 08:04:00,
2013-03-15 02:09:00,32.4,20.7,23.57,SW,235,0.0,0.0,24,-99.99,,,-99.99,meteohub,2013-03-15 08:09:00,
2013-03-15 02:15:00,32.2,20.7,23.57,SW,235,0.0,0.0,24,-99.99,,,-99.99,meteohub,2013-03-15 08:15:00,
2013-03-15 02:20:00,32.0,21.6,23.57,SW,235,0.0,0.0,25,-99.99,,,-99.99,meteohub,2013-03-15 08:20:00,
2013-03-15 02:25:00,32.2,21.4,23.57,SW,235,0.0,0.0,25,-99.99,,,-99.99,meteohub,2013-03-15 08:25:00,
2013-03-15 02:30:00,32.2,21.4,23.55,SW,235,0.0,0.0,25,-99.99,,,-99.99,meteohub,2013-03-15 08:30:00,
2013-03-15 02:35:00,32.2,21.2,23.55,SW,235,0.0,0.0,25,-99.99,,,-99.99,meteohub,2013-03-15 08:35:00,
2013-03-15 02:41:00,32.0,21.2,23.55,SW,235,0.0,0.0,25,-99.99,,,-99.99,meteohub,2013-03-15 08:41:00,
2013-03-15 02:46:00,32.0,21.0,23.55,SW,235,0.0,0.0,25,-99.99,,,-99.99,meteohub,2013-03-15 08:46:00,
2013-03-15 02:51:00,32.0,21.4,23.55,SW,235,0.0,0.0,25,-99.99,,,-99.99,meteohub,2013-03-15 08:51:00,
2013-03-15 02:56:00,31.8,20.8,23.55,SW,235,0.0,0.0,24,-99.99,,,-99.99,meteohub,2013-03-15 08:56:00,
2013-03-15 03:02:00,31.6,20.7,23.49,NNW,335,0.0,0.0,24,-99.99,,,-99.99,meteohub,2013-03-15 09:02:00,
2013-03-15 03:07:00,31.5,20.7,23.49,NW,320,0.0,0.0,24,-99.99,,,-99.99,meteohub,2013-03-15 09:07:00,
2013-03-15 03:12:00,31.6,21.6,23.49,NW,323,0.0,0.0,25,-99.99,,,-99.99,meteohub,2013-03-15 09:12:00,
2013-03-15 03:17:00,31.8,21.4,23.46,NW,323,0.0,0.0,25,-99.99,,,-99.99,meteohub,2013-03-15 09:17:00,
2013-03-15 03:22:00,31.8,21.4,23.46,NW,323,0.0,0.0,25,-99.99,,,-99.99,meteohub,2013-03-15 09:22:00,
2013-03-15 03:28:00,31.6,21.2,23.46,NW,323,0.0,0.0,25,-99.99,,,-99.99,meteohub,2013-03-15 09:28:00,
2013-03-15 03:33:00,31.6,21.2,23.49,NW,323,0.0,0.0,25,-99.99,,,-99.99,meteohub,2013-03-15 09:33:00,
2013-03-15 03:38:00,31.6,21.0,23.49,NW,323,0.0,0.0,25,-99.99,,,-99.99,meteohub,2013-03-15 09:38:00,
2013-03-15 03:43:00,31.6,21.6,23.49,NW,323,0.0,0.0,25,-99.99,,,-99.99,meteohub,2013-03-15 09:43:00,
2013-03-15 03:49:00,31.6,20.8,23.55,WNW,287,0.0,0.0,24,-99.99,,,-99.99,meteohub,2013-03-15 09:49:00,
2013-03-15 03:54:00,31.6,20.7,23.55,WNW,287,0.0,0.0,24,-99.99,,,-99.99,meteohub,2013-03-15 09:54:00,
2013-03-15 03:59:00,31.3,21.6,23.46,WNW,287,0.0,0.0,25,-99.99,,,-99.99,meteohub,2013-03-15 09:59:00,
2013-03-15 04:04:00,31.1,21.4,23.46,WNW,287,0.0,0.0,25,-99.99,,,-99.99,meteohub,2013-03-15 10:04:00,
2013-03-15 04:10:00,31.1,21.4,23.46,WNW,287,0.0,0.0,25,-99.99,,,-99.99,meteohub,2013-03-15 10:10:00,
2013-03-15 04:15:00,31.1,21.4,23.43,WNW,287,0.0,0.0,25,-99.99,,,-99.99,meteohub,2013-03-15 10:15:00,
2013-03-15 04:20:00,31.1,21.2,23.43,WNW,287,0.0,0.0,25,-99.99,,,-99.99,meteohub,2013-03-15 10:20:00,
2013-03-15 04:25:00,31.1,21.2,23.43,WNW,287,0.0,0.0,25,-99.99,,,-99.99,meteohub,2013-03-15 10:25:00,
2013-03-15 04:31:00,31.3,21.0,23.40,WNW,297,0.0,0.0,25,-99.99,,,-99.99,meteohub,2013-03-15 10:31:00,
2013-03-15 04:36:00,31.1,20.7,23.40,WNW,297,0.0,0.0,24,-99.99,,,-99.99,meteohub,2013-03-15 10:36:00,
2013-03-15 04:41:00,30.6,20.7,23.40,WNW,297,0.0,0.0,24,-99.99,,,-99.99,meteohub,2013-03-15 10:41:00,
2013-03-15 04:47:00,29.5,20.7,23.46,South,172,0.0,0.0,24,-99.99,,,-99.99,meteohub,2013-03-15 10:47:00,
2013-03-15 04:52:00,29.5,21.6,23.46,SSE,167,0.0,0.0,25,-99.99,,,-99.99,meteohub,2013-03-15 10:52:00,
2013-03-15 04:57:00,29.5,21.4,23.46,SSE,167,0.0,0.0,25,-99.99,,,-99.99,meteohub,2013-03-15 10:57:00,
2013-03-15 05:02:00,29.5,21.2,23.49,SSE,167,0.0,0.0,25,-99.99,,,-99.99,meteohub,2013-03-15 11:02:00,
2013-03-15 05:07:00,29.3,21.2,23.49,SSE,167,0.0,0.0,25,-99.99,,,-99.99,meteohub,2013-03-15 11:07:00,
2013-03-15 05:12:00,29.3,21.0,23.49,SSE,167,0.0,0.0,25,-99.99,,,-99.99,meteohub,2013-03-15 11:12:00,
2013-03-15 05:18:00,29.5,21.0,23.43,WSW,247,0.0,0.0,25,-99.99,,,-99.99,meteohub,2013-03-15 11:18:00,
2013-03-15 05:23:00,29.1,20.7,23.43,WSW,256,0.0,0.0,24,-99.99,,,-99.99,meteohub,2013-03-15 11:23:00,
2013-03-15 05:28:00,29.1,20.8,23.43,WNW,290,0.0,0.0,24,-99.99,,,-99.99,meteohub,2013-03-15 11:28:00,
2013-03-15 05:34:00,28.9,20.7,23.52,WNW,301,3.0,0.0,24,-99.99,,,-99.99,meteohub,2013-03-15 11:34:00,
2013-03-15 05:39:00,28.9,21.6,23.52,NW,312,0.0,0.0,25,-99.99,,,-99.99,meteohub,2013-03-15 11:39:00,
2013-03-15 05:44:00,28.9,21.4,23.52,NW,312,0.0,5.0,25,-99.99,,,-99.99,meteohub,2013-03-15 11:44:00,
2013-03-15 05:50:00,28.8,21.2,23.43,NW,312,0.0,5.0,25,-99.99,,,-99.99,meteohub,2013-03-15 11:50:00,
2013-03-15 05:55:00,28.2,21.2,23.43,NW,312,0.0,5.0,25,-99.99,,,-99.99,meteohub,2013-03-15 11:55:00,
2013-03-15 06:00:00,27.9,21.0,23.49,NW,311,0.0,5.0,25,-99.99,,,-99.99,meteohub,2013-03-15 12:00:00,
2013-03-15 06:05:00,27.7,21.0,23.49,NW,311,0.0,0.0,25,-99.99,,,-99.99,meteohub,2013-03-15 12:05:00,
2013-03-15 06:11:00,27.1,20.7,23.49,NW,311,0.0,0.0,24,-99.99,,,-99.99,meteohub,2013-03-15 12:11:00,
2013-03-15 06:16:00,27.3,20.8,23.43,WSW,241,0.0,0.0,24,-99.99,,,-99.99,meteohub,2013-03-15 12:16:00,
2013-03-15 06:21:00,27.7,20.7,23.43,NW,307,2.0,0.0,24,-99.99,,,-99.99,meteohub,2013-03-15 12:21:00,
2013-03-15 06:27:00,27.7,21.6,23.43,West,263,3.0,4.0,25,-99.99,,,-99.99,meteohub,2013-03-15 12:27:00,
2013-03-15 06:32:00,27.7,21.4,23.46,West,273,3.0,4.0,25,-99.99,,,-99.99,meteohub,2013-03-15 12:32:00,
2013-03-15 06:37:00,28.0,21.2,23.46,WNW,303,0.0,4.0,25,-99.99,,,-99.99,meteohub,2013-03-15 12:37:00,
2013-03-15 06:42:00,27.9,21.2,23.46,WNW,285,0.0,4.0,25,-99.99,,,-99.99,meteohub,2013-03-15 12:42:00,
2013-03-15 06:47:00,27.5,21.0,23.40,WNW,285,0.0,4.0,25,-99.99,,,-99.99,meteohub,2013-03-15 12:47:00,
2013-03-15 06:52:00,27.3,21.0,23.40,WNW,285,0.0,3.0,25,-99.99,,,-99.99,meteohub,2013-03-15 12:52:00,
2013-03-15 06:57:00,27.3,21.4,23.40,WNW,285,0.0,0.0,25,-99.99,,,-99.99,meteohub,2013-03-15 12:57:00,
2013-03-15 07:02:00,27.1,20.7,23.46,WNW,285,0.0,0.0,24,-99.99,,,-99.99,meteohub,2013-03-15 13:02:00,
2013-03-15 07:07:00,27.3,20.8,23.46,WNW,285,0.0,0.0,24,-99.99,,,-99.99,meteohub,2013-03-15 13:07:00,
2013-03-15 07:12:00,27.7,20.7,23.46,WNW,285,0.0,0.0,24,-99.99,,,-99.99,meteohub,2013-03-15 13:12:00,
2013-03-15 07:17:00,27.7,21.6,23.40,WNW,285,0.0,0.0,25,-99.99,,,-99.99,meteohub,2013-03-15 13:17:00,
2013-03-15 07:22:00,27.3,21.4,23.40,WNW,285,0.0,0.0,25,-99.99,,,-99.99,meteohub,2013-03-15 13:22:00,
2013-03-15 07:27:00,27.7,21.2,23.40,WNW,285,0.0,0.0,25,-99.99,,,-99.99,meteohub,2013-03-15 13:27:00,
2013-03-15 07:32:00,27.0,21.2,23.49,WNW,285,0.0,0.0,25,-99.99,,,-99.99,meteohub,2013-03-15 13:32:00,
2013-03-15 07:37:00,26.8,21.0,23.49,WNW,285,0.0,0.0,25,-99.99,,,-99.99,meteohub,2013-03-15 13:37:00,
2013-03-15 07:42:00,27.0,21.0,23.49,WNW,303,0.0,0.0,25,-99.99,,,-99.99,meteohub,2013-03-15 13:42:00,
2013-03-15 07:48:00,27.1,20.7,23.57,WNW,303,0.0,4.0,24,-99.99,,,-99.99,meteohub,2013-03-15 13:48:00,
2013-03-15 07:53:00,27.3,20.7,23.57,WNW,303,0.0,4.0,24,-99.99,,,-99.99,meteohub,2013-03-15 13:53:00,
2013-03-15 07:59:00,27.7,21.6,23.57,WNW,303,0.0,0.0,25,-99.99,,,-99.99,meteohub,2013-03-15 13:59:00,
2013-03-15 08:04:00,27.9,21.4,23.52,WNW,303,0.0,0.0,25,-99.99,,,-99.99,meteohub,2013-03-15 14:04:00,
2013-03-15 08:09:00,27.9,21.2,23.52,WNW,303,0.0,0.0,25,-99.99,,,-99.99,meteohub,2013-03-15 14:09:00,
2013-03-15 08:14:00,28.2,21.2,23.46,WNW,303,0.0,0.0,25,-99.99,,,-99.99,meteohub,2013-03-15 14:14:00,
2013-03-15 08:19:00,28.4,21.0,23.46,South,191,0.0,0.0,25,-99.99,,,-99.99,meteohub,2013-03-15 14:19:00,
2013-03-15 08:25:00,28.4,21.0,23.46,SSW,195,0.0,0.0,25,-99.99,,,-99.99,meteohub,2013-03-15 14:25:00,
2013-03-15 08:30:00,28.4,21.4,23.43,WSW,256,0.0,0.0,25,-99.99,,,-99.99,meteohub,2013-03-15 14:30:00,
2013-03-15 08:35:00,28.0,20.7,23.43,WSW,256,0.0,0.0,24,-99.99,,,-99.99,meteohub,2013-03-15 14:35:00,
2013-03-15 08:40:00,28.6,21.6,23.43,WSW,256,0.0,0.0,25,-99.99,,,-99.99,meteohub,2013-03-15 14:40:00,
2013-03-15 08:45:00,29.1,21.4,23.49,WSW,256,0.0,0.0,25,-99.99,,,-99.99,meteohub,2013-03-15 14:45:00,
2013-03-15 08:51:00,29.7,21.4,23.49,WNW,298,0.0,0.0,25,-99.99,,,-99.99,meteohub,2013-03-15 14:51:00,
2013-03-15 08:57:00,30.2,21.2,23.49,WNW,290,0.0,0.0,25,-99.99,,,-99.99,meteohub,2013-03-15 14:57:00,
2013-03-15 09:02:00,30.7,21.2,23.49,WNW,290,0.0,0.0,25,-99.99,,,-99.99,meteohub,2013-03-15 15:02:00,
2013-03-15 09:07:00,30.4,21.0,23.49,WNW,290,0.0,0.0,25,-99.99,,,-99.99,meteohub,2013-03-15 15:07:00,
2013-03-15 09:12:00,30.6,21.2,23.49,WNW,290,0.0,0.0,25,-99.99,,,-99.99,meteohub,2013-03-15 15:12:00,
2013-03-15 09:17:00,31.6,20.7,23.49,WNW,290,0.0,0.0,24,-99.99,,,-99.99,meteohub,2013-03-15 15:17:00,
2013-03-15 09:22:00,32.2,20.8,23.49,WNW,290,0.0,0.0,24,-99.99,,,-99.99,meteohub,2013-03-15 15:22:00,
2013-03-15 09:27:00,32.7,20.7,23.49,WNW,290,0.0,0.0,24,-99.99,,,-99.99,meteohub,2013-03-15 15:27:00,
2013-03-15 09:32:00,33.3,21.6,23.46,WNW,290,0.0,0.0,25,-99.99,,,-99.99,meteohub,2013-03-15 15:32:00,
2013-03-15 09:38:00,33.6,21.4,23.46,WNW,290,0.0,0.0,25,-99.99,,,-99.99,meteohub,2013-03-15 15:38:00,
2013-03-15 09:43:00,34.0,21.4,23.46,WNW,290,0.0,0.0,25,-99.99,,,-99.99,meteohub,2013-03-15 15:43:00,
2013-03-15 09:48:00,34.5,21.2,23.49,WNW,290,0.0,0.0,25,-99.99,,,-99.99,meteohub,2013-03-15 15:48:00,
2013-03-15 09:53:00,35.8,21.2,23.49,WNW,290,0.0,0.0,25,-99.99,,,-99.99,meteohub,2013-03-15 15:53:00,
2013-03-15 09:59:00,36.7,21.2,23.49,WNW,290,0.0,0.0,25,-99.99,,,-99.99,meteohub,2013-03-15 15:59:00,
2013-03-15 10:04:00,37.4,21.2,23.52,WNW,290,0.0,0.0,25,-99.99,,,-99.99,meteohub,2013-03-15 16:04:00,
2013-03-15 10:09:00,38.1,21.4,23.52,WNW,290,0.0,0.0,25,-99.99,,,-99.99,meteohub,2013-03-15 16:09:00,
2013-03-15 10:15:00,38.8,21.0,23.55,WNW,290,0.0,0.0,24,-99.99,,,-99.99,meteohub,2013-03-15 16:15:00,
2013-03-15 10:20:00,39.7,21.0,23.55,WNW,290,0.0,0.0,24,-99.99,,,-99.99,meteohub,2013-03-15 16:20:00,
2013-03-15 10:25:00,41.2,20.8,23.55,WNW,290,0.0,0.0,24,-99.99,,,-99.99,meteohub,2013-03-15 16:25:00,
2013-03-15 10:30:00,43.5,20.8,23.46,WNW,290,0.0,0.0,24,-99.99,,,-99.99,meteohub,2013-03-15 16:30:00,
2013-03-15 10:35:00,45.3,20.7,23.46,WNW,290,0.0,0.0,24,-99.99,,,-99.99,meteohub,2013-03-15 16:35:00,
2013-03-15 10:40:00,46.8,20.7,23.46,WNW,290,0.0,0.0,24,-99.99,,,-99.99,meteohub,2013-03-15 16:40:00,
2013-03-15 10:45:00,48.4,20.7,23.49,WNW,290,0.0,0.0,24,-99.99,,,-99.99,meteohub,2013-03-15 16:45:00,
2013-03-15 10:50:00,49.5,20.7,23.49,WNW,290,0.0,0.0,24,-99.99,,,-99.99,meteohub,2013-03-15 16:50:00,
2013-03-15 10:56:00,49.6,20.7,23.49,WNW,290,0.0,0.0,24,-99.99,,,-99.99,meteohub,2013-03-15 16:56:00,
2013-03-15 11:01:00,49.1,20.7,23.55,WNW,290,0.0,0.0,24,-99.99,,,-99.99,meteohub,2013-03-15 17:01:00,
2013-03-15 11:07:00,47.7,20.7,23.55,WNW,290,0.0,0.0,24,-99.99,,,-99.99,meteohub,2013-03-15 17:07:00,
2013-03-15 11:12:00,47.8,20.7,23.55,WNW,290,0.0,0.0,24,-99.99,,,-99.99,meteohub,2013-03-15 17:12:00,
2013-03-15 11:17:00,48.7,20.7,23.57,WNW,290,0.0,0.0,24,-99.99,,,-99.99,meteohub,2013-03-15 17:17:00,
2013-03-15 11:22:00,51.4,20.7,23.57,WNW,290,0.0,0.0,24,-99.99,,,-99.99,meteohub,2013-03-15 17:22:00,
2013-03-15 11:27:00,54.1,20.7,23.57,WNW,290,0.0,0.0,24,-99.99,,,-99.99,meteohub,2013-03-15 17:27:00,
2013-03-15 11:32:00,55.9,20.7,23.49,WNW,290,0.0,0.0,24,-99.99,,,-99.99,meteohub,2013-03-15 17:32:00,
2013-03-15 11:37:00,56.7,20.7,23.49,WNW,290,0.0,0.0,24,-99.99,,,-99.99,meteohub,2013-03-15 17:37:00,
2013-03-15 11:42:00,56.8,20.7,23.49,WNW,290,0.0,0.0,24,-99.99,,,-99.99,meteohub,2013-03-15 17:42:00,
2013-03-15 11:47:00,57.0,20.7,23.52,WNW,290,0.0,0.0,24,-99.99,,,-99.99,meteohub,2013-03-15 17:47:00,
2013-03-15 11:52:00,56.7,20.7,23.52,WNW,290,0.0,0.0,24,-99.99,,,-99.99,meteohub,2013-03-15 17:52:00,
2013-03-15 11:58:00,55.0,20.7,23.52,WNW,290,0.0,0.0,24,-99.99,,,-99.99,meteohub,2013-03-15 17:58:00,
2013-03-15 12:03:00,53.1,20.7,23.46,WNW,284,0.0,0.0,24,-99.99,,,-99.99,meteohub,2013-03-15 18:03:00,
2013-03-15 12:08:00,53.4,20.7,23.46,WNW,285,0.0,0.0,24,-99.99,,,-99.99,meteohub,2013-03-15 18:08:00,
2013-03-15 12:13:00,54.3,20.7,23.46,WNW,285,0.0,0.0,24,-99.99,,,-99.99,meteohub,2013-03-15 18:13:00,
2013-03-15 12:18:00,55.0,20.7,23.40,WNW,285,0.0,0.0,24,-99.99,,,-99.99,meteohub,2013-03-15 18:18:00,
2013-03-15 12:23:00,56.1,20.7,23.40,WNW,285,0.0,0.0,24,-99.99,,,-99.99,meteohub,2013-03-15 18:23:00,
2013-03-15 12:28:00,55.4,20.7,23.40,WNW,285,0.0,0.0,24,-99.99,,,-99.99,meteohub,2013-03-15 18:28:00,
2013-03-15 12:34:00,54.3,20.7,23.55,WNW,285,0.0,0.0,24,-99.99,,,-99.99,meteohub,2013-03-15 18:34:00,
2013-03-15 12:39:00,53.8,20.7,23.55,West,261,0.0,0.0,24,-99.99,,,-99.99,meteohub,2013-03-15 18:39:00,
2013-03-15 12:44:00,52.3,20.7,23.55,West,261,0.0,0.0,24,-99.99,,,-99.99,meteohub,2013-03-15 18:44:00,
2013-03-15 12:49:00,50.9,20.7,23.55,SE,128,0.0,0.0,24,-99.99,,,-99.99,meteohub,2013-03-15 18:49:00,
2013-03-15 12:55:00,49.3,20.7,23.55,ENE,76,0.0,0.0,24,-99.99,,,-99.99,meteohub,2013-03-15 18:55:00,
2013-03-15 13:00:00,48.7,20.7,23.52,ESE,109,5.0,0.0,24,-99.99,,,-99.99,meteohub,2013-03-15 19:00:00,
2013-03-15 13:05:00,48.6,20.7,23.52,ESE,114,6.0,6.0,24,-99.99,,,-99.99,meteohub,2013-03-15 19:05:00,
2013-03-15 13:10:00,48.0,20.7,23.52,ESE,108,6.0,6.0,24,-99.99,,,-99.99,meteohub,2013-03-15 19:10:00,
2013-03-15 13:16:00,47.5,20.7,23.52,ESE,121,8.0,8.0,24,-99.99,,,-99.99,meteohub,2013-03-15 19:16:00,
2013-03-15 13:21:00,47.3,20.7,23.52,SE,135,4.0,8.0,24,-99.99,,,-99.99,meteohub,2013-03-15 19:21:00,
2013-03-15 13:26:00,47.5,20.7,23.52,South,176,3.0,8.0,24,-99.99,,,-99.99,meteohub,2013-03-15 19:26:00,
2013-03-15 13:31:00,46.2,20.7,23.52,SSW,201,3.0,8.0,24,-99.99,,,-99.99,meteohub,2013-03-15 19:31:00,
2013-03-15 13:37:00,45.1,20.7,23.52,SSE,163,5.0,8.0,24,-99.99,,,-99.99,meteohub,2013-03-15 19:37:00,
2013-03-15 13:42:00,42.4,20.7,23.52,SSW,201,6.0,6.0,24,-99.99,,,-99.99,meteohub,2013-03-15 19:42:00,
2013-03-15 13:47:00,43.5,20.7,23.46,SW,220,5.0,6.0,24,-99.99,,,-99.99,meteohub,2013-03-15 19:47:00,
2013-03-15 13:52:00,45.1,20.7,23.46,SW,220,3.0,6.0,24,-99.99,,,-99.99,meteohub,2013-03-15 19:52:00,
2013-03-15 13:58:00,48.2,20.7,23.46,SW,220,0.0,6.0,24,-99.99,,,-99.99,meteohub,2013-03-15 19:58:00,
2013-03-15 14:03:00,53.4,20.7,23.43,SW,220,0.0,6.0,24,-99.99,,,-99.99,meteohub,2013-03-15 20:03:00,
2013-03-15 14:08:00,51.8,20.8,23.43,SW,220,0.0,3.0,24,-99.99,,,-99.99,meteohub,2013-03-15 20:08:00,
2013-03-15 14:14:00,54.9,20.8,23.43,SW,220,0.0,0.0,24,-99.99,,,-99.99,meteohub,2013-03-15 20:14:00,
2013-03-15 14:19:00,58.3,20.8,23.40,West,260,0.0,0.0,24,-99.99,,,-99.99,meteohub,2013-03-15 20:19:00,
2013-03-15 14:24:00,59.4,20.8,23.40,WSW,256,0.0,0.0,24,-99.99,,,-99.99,meteohub,2013-03-15 20:24:00,
2013-03-15 14:29:00,60.1,20.8,23.40,NNW,328,4.0,6.0,24,-99.99,,,-99.99,meteohub,2013-03-15 20:29:00,
2013-03-15 14:34:00,54.0,20.8,23.37,SW,223,5.0,6.0,24,-99.99,,,-99.99,meteohub,2013-03-15 20:34:00,
2013-03-15 14:39:00,53.6,20.8,23.37,West,276,5.0,6.0,24,-99.99,,,-99.99,meteohub,2013-03-15 20:39:00,
2013-03-15 14:45:00,54.9,20.8,23.37,SW,232,6.0,8.0,24,-99.99,,,-99.99,meteohub,2013-03-15 20:45:00,
2013-03-15 14:50:00,56.3,20.8,23.37,SW,236,5.0,8.0,24,-99.99,,,-99.99,meteohub,2013-03-15 20:50:00,
2013-03-15 14:55:00,56.3,20.8,23.37,NW,308,6.0,6.0,24,-99.99,,,-99.99,meteohub,2013-03-15 20:55:00,
2013-03-15 15:00:00,54.5,20.8,23.43,NW,306,8.0,8.0,24,-99.99,,,-99.99,meteohub,2013-03-15 21:00:00,
2013-03-15 15:05:00,51.8,20.8,23.43,West,266,8.0,10.0,24,-99.99,,,-99.99,meteohub,2013-03-15 21:05:00,
2013-03-15 15:10:00,50.5,20.8,23.43,WNW,283,6.0,10.0,24,-99.99,,,-99.99,meteohub,2013-03-15 21:10:00,
2013-03-15 15:16:00,50.2,20.8,23.52,WNW,302,6.0,10.0,24,-99.99,,,-99.99,meteohub,2013-03-15 21:16:00,
2013-03-15 15:21:00,50.2,20.8,23.52,NW,314,6.0,10.0,24,-99.99,,,-99.99,meteohub,2013-03-15 21:21:00,
2013-03-15 15:26:00,50.2,20.8,23.52,NW,322,5.0,10.0,24,-99.99,,,-99.99,meteohub,2013-03-15 21:26:00,
2013-03-15 15:32:00,49.5,20.8,23.40,WNW,292,8.0,8.0,24,-99.99,,,-99.99,meteohub,2013-03-15 21:32:00,
2013-03-15 15:37:00,49.1,20.8,23.40,West,274,8.0,8.0,24,-99.99,,,-99.99,meteohub,2013-03-15 21:37:00,
2013-03-15 15:42:00,48.6,20.7,23.40,NW,313,8.0,9.0,24,-99.99,,,-99.99,meteohub,2013-03-15 21:42:00,
2013-03-15 15:47:00,47.7,20.7,23.43,WNW,284,8.0,11.0,24,-99.99,,,-99.99,meteohub,2013-03-15 21:47:00,
2013-03-15 15:52:00,47.3,20.7,23.43,WNW,289,11.0,11.0,24,-99.99,,,-99.99,meteohub,2013-03-15 21:52:00,
2013-03-15 15:58:00,46.8,20.7,23.43,NW,305,8.0,11.0,24,-99.99,,,-99.99,meteohub,2013-03-15 21:58:00,
2013-03-15 16:03:00,46.4,20.7,23.43,NW,313,8.0,11.0,24,-99.99,,,-99.99,meteohub,2013-03-15 22:03:00,
2013-03-15 16:08:00,45.1,20.7,23.43,WNW,282,9.0,11.0,24,-99.99,,,-99.99,meteohub,2013-03-15 22:08:00,
2013-03-15 16:14:00,44.8,20.7,23.43,WNW,296,9.0,11.0,24,-99.99,,,-99.99,meteohub,2013-03-15 22:14:00,
2013-03-15 16:19:00,44.6,20.7,23.43,WNW,296,8.0,11.0,24,-99.99,,,-99.99,meteohub,2013-03-15 22:19:00,
2013-03-15 16:24:00,44.4,20.7,23.43,NW,310,8.0,11.0,24,-99.99,,,-99.99,meteohub,2013-03-15 22:24:00,
2013-03-15 16:29:00,44.1,20.7,23.43,WNW,283,8.0,11.0,24,-99.99,,,-99.99,meteohub,2013-03-15 22:29:00,
2013-03-15 16:34:00,43.9,20.7,23.43,NW,314,6.0,11.0,24,-99.99,,,-99.99,meteohub,2013-03-15 22:34:00,
2013-03-15 16:40:00,44.1,20.7,23.43,WNW,287,5.0,11.0,24,-99.99,,,-99.99,meteohub,2013-03-15 22:40:00,
2013-03-15 16:45:00,44.1,21.6,23.43,NW,310,5.0,10.0,25,-99.99,,,-99.99,meteohub,2013-03-15 22:45:00,
2013-03-15 16:50:00,43.9,21.6,23.43,WNW,301,4.0,11.0,25,-99.99,,,-99.99,meteohub,2013-03-15 22:50:00,
2013-03-15 16:55:00,43.9,21.6,23.43,WNW,284,5.0,11.0,25,-99.99,,,-99.99,meteohub,2013-03-15 22:55:00,
2013-03-15 17:00:00,43.9,21.6,23.46,WNW,303,6.0,11.0,25,-99.99,,,-99.99,meteohub,2013-03-15 23:00:00,
2013-03-15 17:05:00,43.7,21.6,23.46,WSW,244,5.0,8.0,25,-99.99,,,-99.99,meteohub,2013-03-15 23:05:00,
2013-03-15 17:10:00,43.7,21.6,23.46,WSW,238,5.0,6.0,25,-99.99,,,-99.99,meteohub,2013-03-15 23:10:00,
2013-03-15 17:16:00,43.7,21.6,23.52,SW,228,5.0,6.0,25,-99.99,,,-99.99,meteohub,2013-03-15 23:16:00,
2013-03-15 17:21:00,43.7,21.6,23.52,West,259,6.0,6.0,25,-99.99,,,-99.99,meteohub,2013-03-15 23:21:00,
2013-03-15 17:27:00,43.5,21.4,23.52,SW,233,4.0,8.0,25,-99.99,,,-99.99,meteohub,2013-03-15 23:27:00,
2013-03-15 17:32:00,43.3,21.4,23.52,WSW,245,4.0,8.0,25,-99.99,,,-99.99,meteohub,2013-03-15 23:32:00,
2013-03-15 17:37:00,42.8,21.4,23.52,WSW,249,0.0,8.0,25,-99.99,,,-99.99,meteohub,2013-03-15 23:37:00,
2013-03-15 17:42:00,41.5,21.4,23.52,South,172,0.0,6.0,25,-99.99,,,-99.99,meteohub,2013-03-15 23:42:00,
2013-03-15 17:47:00,41.0,21.4,23.49,South,188,0.0,4.0,25,-99.99,,,-99.99,meteohub,2013-03-15 23:47:00,
2013-03-15 17:52:00,41.5,21.0,23.49,South,188,0.0,3.0,24,-99.99,,,-99.99,meteohub,2013-03-15 23:52:00,
2013-03-15 17:58:00,41.7,21.0,23.49,South,188,0.0,3.0,24,-99.99,,,-99.99,meteohub,2013-03-15 23:58:00,
2013-03-15 18:03:00,40.5,21.0,23.43,SE,136,0.0,0.0,24,-99.99,,,-99.99,meteohub,2013-03-16 00:03:00,
2013-03-15 18:08:00,40.1,21.0,23.43,SSE,159,0.0,0.0,24,-99.99,,,-99.99,meteohub,2013-03-16 00:08:00,
2013-03-15 18:13:00,40.3,20.8,23.43,SSE,159,0.0,0.0,24,-99.99,,,-99.99,meteohub,2013-03-16 00:13:00,
2013-03-15 18:18:00,40.5,20.7,23.40,SSE,159,0.0,0.0,24,-99.99,,,-99.99,meteohub,2013-03-16 00:18:00,
2013-03-15 18:24:00,40.6,20.7,23.40,SSE,159,0.0,0.0,24,-99.99,,,-99.99,meteohub,2013-03-16 00:24:00,
2013-03-15 18:29:00,40.5,20.7,23.40,SSE,159,0.0,0.0,24,-99.99,,,-99.99,meteohub,2013-03-16 00:29:00,
2013-03-15 18:34:00,39.4,21.6,23.37,SSE,159,0.0,0.0,25,-99.99,,,-99.99,meteohub,2013-03-16 00:34:00,
2013-03-15 18:39:00,39.2,21.6,23.37,SSE,159,0.0,0.0,25,-99.99,,,-99.99,meteohub,2013-03-16 00:39:00,
2013-03-15 18:45:00,39.9,21.4,23.43,SSE,159,0.0,0.0,25,-99.99,,,-99.99,meteohub,2013-03-16 00:45:00,
2013-03-15 18:50:00,40.3,21.4,23.43,SSE,159,0.0,0.0,25,-99.99,,,-99.99,meteohub,2013-03-16 00:50:00,
2013-03-15 18:55:00,40.3,21.4,23.43,SSE,159,0.0,0.0,25,-99.99,,,-99.99,meteohub,2013-03-16 00:55:00,
2013-03-15 19:00:00,39.7,21.4,23.46,SSE,159,0.0,0.0,25,-99.99,,,-99.99,meteohub,2013-03-16 01:00:00,
2013-03-15 19:05:00,39.2,21.6,23.46,SSE,159,0.0,0.0,25,-99.99,,,-99.99,meteohub,2013-03-16 01:05:00,
2013-03-15 19:10:00,39.4,21.0,23.46,SSE,159,0.0,0.0,24,-99.99,,,-99.99,meteohub,2013-03-16 01:10:00,
2013-03-15 19:15:00,39.4,21.0,23.46,SSE,159,0.0,0.0,24,-99.99,,,-99.99,meteohub,2013-03-16 01:15:00,
2013-03-15 19:21:00,38.8,20.8,23.46,SSE,159,0.0,0.0,24,-99.99,,,-99.99,meteohub,2013-03-16 01:21:00,
2013-03-15 19:26:00,38.5,20.8,23.46,SSE,159,0.0,0.0,24,-99.99,,,-99.99,meteohub,2013-03-16 01:26:00,
2013-03-15 19:31:00,38.1,20.7,23.49,SSE,159,0.0,0.0,24,-99.99,,,-99.99,meteohub,2013-03-16 01:31:00,
2013-03-15 19:37:00,37.8,21.6,23.49,West,279,0.0,0.0,25,-99.99,,,-99.99,meteohub,2013-03-16 01:37:00,
2013-03-15 19:42:00,37.6,21.6,23.49,WNW,282,0.0,0.0,25,-99.99,,,-99.99,meteohub,2013-03-16 01:42:00,
2013-03-15 19:47:00,37.0,21.4,23.49,West,281,0.0,0.0,25,-99.99,,,-99.99,meteohub,2013-03-16 01:47:00,
2013-03-15 19:52:00,37.0,21.4,23.49,West,281,0.0,0.0,25,-99.99,,,-99.99,meteohub,2013-03-16 01:52:00,
2013-03-15 19:57:00,37.0,21.4,23.49,West,281,0.0,0.0,25,-99.99,,,-99.99,meteohub,2013-03-16 01:57:00,
2013-03-15 20:02:00,36.9,21.4,23.43,West,281,0.0,0.0,25,-99.99,,,-99.99,meteohub,2013-03-16 02:02:00,
2013-03-15 20:07:00,36.3,21.2,23.43,West,281,0.0,0.0,25,-99.99,,,-99.99,meteohub,2013-03-16 02:07:00,
2013-03-15 20:12:00,36.1,21.4,23.43,West,281,0.0,0.0,25,-99.99,,,-99.99,meteohub,2013-03-16 02:12:00,
2013-03-15 20:17:00,36.0,21.0,23.49,West,281,0.0,0.0,24,-99.99,,,-99.99,meteohub,2013-03-16 02:17:00,
2013-03-15 20:22:00,35.4,21.0,23.49,West,281,0.0,0.0,24,-99.99,,,-99.99,meteohub,2013-03-16 02:22:00,
2013-03-15 20:28:00,35.4,20.8,23.49,West,281,0.0,0.0,24,-99.99,,,-99.99,meteohub,2013-03-16 02:28:00,
2013-03-15 20:33:00,35.2,20.7,23.46,West,281,0.0,0.0,24,-99.99,,,-99.99,meteohub,2013-03-16 02:33:00,
2013-03-15 20:38:00,35.1,21.6,23.46,West,281,0.0,0.0,25,-99.99,,,-99.99,meteohub,2013-03-16 02:38:00,
2013-03-15 20:43:00,35.1,21.6,23.46,West,281,0.0,0.0,25,-99.99,,,-99.99,meteohub,2013-03-16 02:43:00,
2013-03-15 20:48:00,35.1,21.4,23.43,West,280,0.0,0.0,25,-99.99,,,-99.99,meteohub,2013-03-16 02:48:00,
2013-03-15 20:53:00,35.1,21.4,23.43,West,280,0.0,0.0,25,-99.99,,,-99.99,meteohub,2013-03-16 02:53:00,
2013-03-15 20:59:00,35.1,21.4,23.43,West,280,0.0,0.0,25,-99.99,,,-99.99,meteohub,2013-03-16 02:59:00,
2013-03-15 21:04:00,34.9,21.2,23.40,West,280,0.0,0.0,25,-99.99,,,-99.99,meteohub,2013-03-16 03:04:00,
2013-03-15 21:09:00,34.3,21.2,23.40,West,280,0.0,0.0,25,-99.99,,,-99.99,meteohub,2013-03-16 03:09:00,
2013-03-15 21:14:00,33.3,20.7,23.49,West,280,0.0,0.0,24,-99.99,,,-99.99,meteohub,2013-03-16 03:14:00,
2013-03-15 21:20:00,32.5,20.8,23.49,West,280,0.0,0.0,24,-99.99,,,-99.99,meteohub,2013-03-16 03:20:00,
2013-03-15 21:25:00,32.5,20.7,23.49,West,280,0.0,0.0,24,-99.99,,,-99.99,meteohub,2013-03-16 03:25:00,
2013-03-15 21:30:00,32.7,21.6,23.43,West,280,0.0,0.0,25,-99.99,,,-99.99,meteohub,2013-03-16 03:30:00,
2013-03-15 21:35:00,32.7,21.6,23.43,West,280,0.0,0.0,25,-99.99,,,-99.99,meteohub,2013-03-16 03:35:00,
2013-03-15 21:41:00,32.5,21.4,23.43,West,280,0.0,0.0,25,-99.99,,,-99.99,meteohub,2013-03-16 03:41:00,
2013-03-15 21:46:00,32.5,21.4,23.40,NW,315,4.0,0.0,25,-99.99,,,-99.99,meteohub,2013-03-16 03:46:00,
2013-03-15 21:51:00,32.5,21.2,23.40,NW,306,0.0,5.0,25,-99.99,,,-99.99,meteohub,2013-03-16 03:51:00,
2013-03-15 21:56:00,32.4,21.2,23.40,WNW,302,0.0,5.0,25,-99.99,,,-99.99,meteohub,2013-03-16 03:56:00,
2013-03-15 22:00:00,32.4,21.2,23.40,West,268,3.0,5.0,25,-99.99,,,-99.99,meteohub,2013-03-16 04:00:00,
2013-03-15 22:02:00,32.4,21.2,23.40,WNW,285,2.0,5.0,25,-99.99,,,-99.99,meteohub,2013-03-16 04:02:00,
2013-03-15 22:07:00,32.5,20.7,23.40,WNW,283,0.0,4.0,24,-99.99,,,-99.99,meteohub,2013-03-16 04:07:00,
2013-03-15 22:09:00,32.2,20.8,23.40,SE,145,0.0,4.0,24,-99.99,,,-99.99,meteohub,2013-03-16 04:09:00,
2013-03-15 22:14:00,32.0,20.8,23.40,North,-999,-999.0,4.0,24,-99.99,,,-99.99,meteohub,2013-03-16 04:14:00,
2013-03-15 22:20:00,31.6,20.7,23.40,North,-999,-999.0,0.0,24,-99.99,,,-99.99,meteohub,2013-03-16 04:20:00,
2013-03-15 22:25:00,31.1,21.6,23.40,North,-999,-999.0,0.0,25,-99.99,,,-99.99,meteohub,2013-03-16 04:25:00,
2013-03-15 22:30:00,30.9,21.4,23.46,North,-999,-999.0,-999.0,25,-99.99,,,-99.99,meteohub,2013-03-16 04:30:00,
2013-03-15 22:35:00,30.7,21.4,23.46,North,-999,-999.0,-999.0,25,-99.99,,,-99.99,meteohub,2013-03-16 04:35:00,
2013-03-15 22:40:00,30.4,21.2,23.46,North,-999,-999.0,-999.0,25,-99.99,,,-99.99,meteohub,2013-03-16 04:40:00,
2013-03-15 22:45:00,30.0,21.2,23.40,West,273,0.0,-999.0,25,-99.99,,,-99.99,meteohub,2013-03-16 04:45:00,
2013-03-15 22:51:00,29.3,21.2,23.40,SSE,165,0.0,0.0,25,-99.99,,,-99.99,meteohub,2013-03-16 04:51:00,
2013-03-15 22:56:00,28.4,21.4,23.40,SSE,165,0.0,0.0,25,-99.99,,,-99.99,meteohub,2013-03-16 04:56:00,
2013-03-15 23:01:00,28.0,20.8,23.49,SSE,165,0.0,0.0,24,-99.99,,,-99.99,meteohub,2013-03-16 05:01:00,
2013-03-15 23:06:00,28.0,20.7,23.49,SSE,165,0.0,0.0,24,-99.99,,,-99.99,meteohub,2013-03-16 05:06:00,
2013-03-15 23:12:00,28.4,21.6,23.49,SSE,165,0.0,0.0,25,-99.99,,,-99.99,meteohub,2013-03-16 05:12:00,
2013-03-15 23:17:00,28.4,21.4,23.40,SSE,165,0.0,0.0,25,-99.99,,,-99.99,meteohub,2013-03-16 05:17:00,
2013-03-15 23:22:00,28.4,21.4,23.40,WSW,250,0.0,0.0,25,-99.99,,,-99.99,meteohub,2013-03-16 05:22:00,
2013-03-15 23:27:00,28.0,21.2,23.40,WNW,297,3.0,0.0,25,-99.99,,,-99.99,meteohub,2013-03-16 05:27:00,
2013-03-15 23:32:00,28.0,21.2,23.40,NW,308,0.0,3.0,25,-99.99,,,-99.99,meteohub,2013-03-16 05:32:00,
2013-03-15 23:37:00,28.2,21.0,23.40,NW,308,0.0,3.0,25,-99.99,,,-99.99,meteohub,2013-03-16 05:37:00,
2013-03-15 23:42:00,27.9,21.4,23.40,NW,308,0.0,3.0,25,-99.99,,,-99.99,meteohub,2013-03-16 05:42:00,
2013-03-15 23:47:00,27.5,20.8,23.37,NW,308,0.0,0.0,24,-99.99,,,-99.99,meteohub,2013-03-16 05:47:00,
2013-03-15 23:53:00,27.0,20.8,23.37,NW,308,0.0,0.0,24,-99.99,,,-99.99,meteohub,2013-03-16 05:53:00,
2013-03-15 23:58:00,26.6,20.7,23.37,NW,308,0.0,0.0,24,-99.99,,,-99.99,meteohub,2013-03-16 05:58:00,